Year,Month,Day,Hour,Minute,Value (Times are PST for temperature in C)
2008,08,26,00,00,13.10
2008,08,26,00,01,13.00
2008,08,26,00,02,13.00
2008,08,26,00,03,12.90
2008,08,26,00,04,12.90
2008,08,26,00,05,12.80
2008,08,26,00,06,12.80
2008,08,26,00,07,12.80
2008,08,26,00,08,12.80
2008,08,26,00,09,12.80
2008,08,26,00,10,12.90
2008,08,26,00,11,12.90
2008,08,26,00,12,13.00
2008,08,26,00,13,13.10
2008,08,26,00,14,13.10
2008,08,26,00,15,13.20
2008,08,26,00,16,13.20
2008,08,26,00,17,13.20
2008,08,26,00,18,13.30
2008,08,26,00,19,13.30
2008,08,26,00,20,13.30
2008,08,26,00,21,13.30
2008,08,26,00,22,13.30
2008,08,26,00,23,13.30
2008,08,26,00,24,13.40
2008,08,26,00,25,13.40
2008,08,26,00,26,13.40
2008,08,26,00,27,13.40
2008,08,26,00,28,13.40
2008,08,26,00,29,13.30
2008,08,26,00,30,13.30
2008,08,26,00,31,13.30
2008,08,26,00,32,13.20
2008,08,26,00,33,13.30
2008,08,26,00,34,13.30
2008,08,26,00,35,13.30
2008,08,26,00,36,13.30
2008,08,26,00,37,13.30
2008,08,26,00,38,13.30
2008,08,26,00,39,13.30
2008,08,26,00,40,13.30
2008,08,26,00,41,13.30
2008,08,26,00,42,13.30
2008,08,26,00,43,13.30
2008,08,26,00,44,13.30
2008,08,26,00,45,13.30
2008,08,26,00,46,13.20
2008,08,26,00,47,13.20
2008,08,26,00,48,13.20
2008,08,26,00,49,13.20
2008,08,26,00,50,13.20
2008,08,26,00,51,13.20
2008,08,26,00,52,13.20
2008,08,26,00,53,13.20
2008,08,26,00,54,13.20
2008,08,26,00,55,13.20
2008,08,26,00,56,13.20
2008,08,26,00,57,13.20
2008,08,26,00,58,13.20
2008,08,26,00,59,13.30
2008,08,26,01,00,13.20
2008,08,26,01,01,13.20
2008,08,26,01,02,13.20
2008,08,26,01,03,13.20
2008,08,26,01,04,13.20
2008,08,26,01,05,13.20
2008,08,26,01,06,13.20
2008,08,26,01,07,13.20
2008,08,26,01,08,13.20
2008,08,26,01,09,13.20
2008,08,26,01,10,13.20
2008,08,26,01,11,13.20
2008,08,26,01,12,13.20
2008,08,26,01,13,13.10
2008,08,26,01,14,13.10
2008,08,26,01,15,13.10
2008,08,26,01,16,13.10
2008,08,26,01,17,13.10
2008,08,26,01,18,13.10
2008,08,26,01,19,13.10
2008,08,26,01,20,13.10
2008,08,26,01,21,13.10
2008,08,26,01,22,13.20
2008,08,26,01,23,13.10
2008,08,26,01,24,13.10
2008,08,26,01,25,13.10
2008,08,26,01,26,13.10
2008,08,26,01,27,13.10
2008,08,26,01,28,13.00
2008,08,26,01,29,12.90
2008,08,26,01,30,12.90
2008,08,26,01,31,12.80
2008,08,26,01,32,12.80
2008,08,26,01,33,12.70
2008,08,26,01,34,12.60
2008,08,26,01,35,12.50
2008,08,26,01,36,12.50
2008,08,26,01,37,12.30
2008,08,26,01,38,12.20
2008,08,26,01,39,12.10
2008,08,26,01,40,12.00
2008,08,26,01,41,11.90
2008,08,26,01,42,11.80
2008,08,26,01,43,11.80
2008,08,26,01,44,11.80
2008,08,26,01,45,11.80
2008,08,26,01,46,11.80
2008,08,26,01,47,11.80
2008,08,26,01,48,11.90
2008,08,26,01,49,11.90
2008,08,26,01,50,11.90
2008,08,26,01,51,12.00
2008,08,26,01,52,12.00
2008,08,26,01,53,12.10
2008,08,26,01,54,12.10
2008,08,26,01,55,12.10
2008,08,26,01,56,12.10
2008,08,26,01,57,12.10
2008,08,26,01,58,12.10
2008,08,26,01,59,12.10
2008,08,26,02,00,12.10
2008,08,26,02,01,12.10
2008,08,26,02,02,12.10
2008,08,26,02,03,12.10
2008,08,26,02,04,12.20
2008,08,26,02,05,12.20
2008,08,26,02,06,12.20
2008,08,26,02,07,12.20
2008,08,26,02,08,12.20
2008,08,26,02,09,12.30
2008,08,26,02,10,12.30
2008,08,26,02,11,12.20
2008,08,26,02,12,12.20
2008,08,26,02,13,12.10
2008,08,26,02,14,12.10
2008,08,26,02,15,12.10
2008,08,26,02,16,12.00
2008,08,26,02,17,12.00
2008,08,26,02,18,11.90
2008,08,26,02,19,11.90
2008,08,26,02,20,11.90
2008,08,26,02,21,11.90
2008,08,26,02,22,11.90
2008,08,26,02,23,11.80
2008,08,26,02,24,11.80
2008,08,26,02,25,11.80
2008,08,26,02,26,11.80
2008,08,26,02,27,11.80
2008,08,26,02,28,11.80
2008,08,26,02,29,11.70
2008,08,26,02,30,11.60
2008,08,26,02,31,11.50
2008,08,26,02,32,11.30
2008,08,26,02,33,11.20
2008,08,26,02,34,11.00
2008,08,26,02,35,10.90
2008,08,26,02,36,10.80
2008,08,26,02,37,10.60
2008,08,26,02,38,10.50
2008,08,26,02,39,10.40
2008,08,26,02,40,10.30
2008,08,26,02,41,10.20
2008,08,26,02,42,10.10
2008,08,26,02,43,10.00
2008,08,26,02,44,10.00
2008,08,26,02,45,9.90
2008,08,26,02,46,9.90
2008,08,26,02,47,9.80
2008,08,26,02,48,9.80
2008,08,26,02,49,9.80
2008,08,26,02,50,9.80
2008,08,26,02,51,9.80
2008,08,26,02,52,9.80
2008,08,26,02,53,9.90
2008,08,26,02,54,9.90
2008,08,26,02,55,10.00
2008,08,26,02,56,10.10
2008,08,26,02,57,10.20
2008,08,26,02,58,10.30
2008,08,26,02,59,10.30
2008,08,26,03,00,10.40
2008,08,26,03,01,10.50
2008,08,26,03,02,10.50
2008,08,26,03,03,10.50
2008,08,26,03,04,10.60
2008,08,26,03,05,10.60
2008,08,26,03,06,10.60
2008,08,26,03,07,10.60
2008,08,26,03,08,10.60
2008,08,26,03,09,10.70
2008,08,26,03,10,10.70
2008,08,26,03,11,10.70
2008,08,26,03,12,10.70
2008,08,26,03,13,10.70
2008,08,26,03,14,10.70
2008,08,26,03,15,10.70
2008,08,26,03,16,10.70
2008,08,26,03,17,10.70
2008,08,26,03,18,10.70
2008,08,26,03,19,10.70
2008,08,26,03,20,10.70
2008,08,26,03,21,10.70
2008,08,26,03,22,10.70
2008,08,26,03,23,10.60
2008,08,26,03,24,10.60
2008,08,26,03,25,10.60
2008,08,26,03,26,10.50
2008,08,26,03,27,10.50
2008,08,26,03,28,10.40
2008,08,26,03,29,10.40
2008,08,26,03,30,10.30
2008,08,26,03,31,10.10
2008,08,26,03,32,10.00
2008,08,26,03,33,9.90
2008,08,26,03,34,9.80
2008,08,26,03,35,9.70
2008,08,26,03,36,9.60
2008,08,26,03,37,9.60
2008,08,26,03,38,9.50
2008,08,26,03,39,9.40
2008,08,26,03,40,9.40
2008,08,26,03,41,9.30
2008,08,26,03,42,9.30
2008,08,26,03,43,9.30
2008,08,26,03,44,9.30
2008,08,26,03,45,9.30
2008,08,26,03,46,9.30
2008,08,26,03,47,9.30
2008,08,26,03,48,9.30
2008,08,26,03,49,9.30
2008,08,26,03,50,9.30
2008,08,26,03,51,9.30
2008,08,26,03,52,9.30
2008,08,26,03,53,9.30
2008,08,26,03,54,9.30
2008,08,26,03,55,9.30
2008,08,26,03,56,9.30
2008,08,26,03,57,9.20
2008,08,26,03,58,9.20
2008,08,26,03,59,9.20
2008,08,26,04,00,9.10
2008,08,26,04,01,9.10
2008,08,26,04,02,9.00
2008,08,26,04,03,9.00
2008,08,26,04,04,9.00
2008,08,26,04,05,8.90
2008,08,26,04,06,8.90
2008,08,26,04,07,8.80
2008,08,26,04,08,8.80
2008,08,26,04,09,8.80
2008,08,26,04,10,8.80
2008,08,26,04,11,8.80
2008,08,26,04,12,8.80
2008,08,26,04,13,8.80
2008,08,26,04,14,8.80
2008,08,26,04,15,8.80
2008,08,26,04,16,8.70
2008,08,26,04,17,8.70
2008,08,26,04,18,8.70
2008,08,26,04,19,8.80
2008,08,26,04,20,8.70
2008,08,26,04,21,8.70
2008,08,26,04,22,8.70
2008,08,26,04,23,8.70
2008,08,26,04,24,8.70
2008,08,26,04,25,8.70
2008,08,26,04,26,8.60
2008,08,26,04,27,8.60
2008,08,26,04,28,8.60
2008,08,26,04,29,8.60
2008,08,26,04,30,8.50
2008,08,26,04,31,8.50
2008,08,26,04,32,8.50
2008,08,26,04,33,8.50
2008,08,26,04,34,8.40
2008,08,26,04,35,8.40
2008,08,26,04,36,8.40
2008,08,26,04,37,8.40
2008,08,26,04,38,8.40
2008,08,26,04,39,8.40
2008,08,26,04,40,8.40
2008,08,26,04,41,8.40
2008,08,26,04,42,8.40
2008,08,26,04,43,8.40
2008,08,26,04,44,8.40
2008,08,26,04,45,8.30
2008,08,26,04,46,8.30
2008,08,26,04,47,8.30
2008,08,26,04,48,8.30
2008,08,26,04,49,8.30
2008,08,26,04,50,8.30
2008,08,26,04,51,8.30
2008,08,26,04,52,8.30
2008,08,26,04,53,8.20
2008,08,26,04,54,8.20
2008,08,26,04,55,8.20
2008,08,26,04,56,8.20
2008,08,26,04,57,8.20
2008,08,26,04,58,8.20
2008,08,26,04,59,8.20
2008,08,26,05,00,8.10
2008,08,26,05,01,8.10
2008,08,26,05,02,8.10
2008,08,26,05,03,8.10
2008,08,26,05,04,8.10
2008,08,26,05,05,8.00
2008,08,26,05,06,8.00
2008,08,26,05,07,8.00
2008,08,26,05,08,8.00
2008,08,26,05,09,8.00
2008,08,26,05,10,8.00
2008,08,26,05,11,8.00
2008,08,26,05,12,8.00
2008,08,26,05,13,7.90
2008,08,26,05,14,7.90
2008,08,26,05,15,7.90
2008,08,26,05,16,7.90
2008,08,26,05,17,7.90
2008,08,26,05,18,7.90
2008,08,26,05,19,7.90
2008,08,26,05,20,7.90
2008,08,26,05,21,7.90
2008,08,26,05,22,7.90
2008,08,26,05,23,7.90
2008,08,26,05,24,7.90
2008,08,26,05,25,7.80
2008,08,26,05,26,7.80
2008,08,26,05,27,7.80
2008,08,26,05,28,7.80
2008,08,26,05,29,7.80
2008,08,26,05,30,7.80
2008,08,26,05,31,7.80
2008,08,26,05,32,7.80
2008,08,26,05,33,7.80
2008,08,26,05,34,7.80
2008,08,26,05,35,7.80
2008,08,26,05,36,7.80
2008,08,26,05,37,7.80
2008,08,26,05,38,7.80
2008,08,26,05,39,7.70
2008,08,26,05,40,7.70
2008,08,26,05,41,7.70
2008,08,26,05,42,7.70
2008,08,26,05,43,7.70
2008,08,26,05,44,7.80
2008,08,26,05,45,7.80
2008,08,26,05,46,7.80
2008,08,26,05,47,7.80
2008,08,26,05,48,7.80
2008,08,26,05,49,7.90
2008,08,26,05,50,7.90
2008,08,26,05,51,7.90
2008,08,26,05,52,7.90
2008,08,26,05,53,7.90
2008,08,26,05,54,7.90
2008,08,26,05,55,7.90
2008,08,26,05,56,8.00
2008,08,26,05,57,8.00
2008,08,26,05,58,8.00
2008,08,26,05,59,8.00
2008,08,26,06,00,8.00
2008,08,26,06,01,8.00
2008,08,26,06,02,8.00
2008,08,26,06,03,8.00
2008,08,26,06,04,8.00
2008,08,26,06,05,8.00
2008,08,26,06,06,7.90
2008,08,26,06,07,7.90
2008,08,26,06,08,7.90
2008,08,26,06,09,7.90
2008,08,26,06,10,7.90
2008,08,26,06,11,8.00
2008,08,26,06,12,8.00
2008,08,26,06,13,8.00
2008,08,26,06,14,7.90
2008,08,26,06,15,8.00
2008,08,26,06,16,8.00
2008,08,26,06,17,8.00
2008,08,26,06,18,8.00
2008,08,26,06,19,8.00
2008,08,26,06,20,8.00
2008,08,26,06,21,8.00
2008,08,26,06,22,7.90
2008,08,26,06,23,7.90
2008,08,26,06,24,7.80
2008,08,26,06,25,7.80
2008,08,26,06,26,7.80
2008,08,26,06,27,7.70
2008,08,26,06,28,7.70
2008,08,26,06,29,7.70
2008,08,26,06,30,7.70
2008,08,26,06,31,7.70
2008,08,26,06,32,7.70
2008,08,26,06,33,7.70
2008,08,26,06,34,7.70
2008,08,26,06,35,7.70
2008,08,26,06,36,7.70
2008,08,26,06,37,7.70
2008,08,26,06,38,7.70
2008,08,26,06,39,7.70
2008,08,26,06,40,7.70
2008,08,26,06,41,7.70
2008,08,26,06,42,7.70
2008,08,26,06,43,7.70
2008,08,26,06,44,7.80
2008,08,26,06,45,7.80
2008,08,26,06,46,7.80
2008,08,26,06,47,7.80
2008,08,26,06,48,7.80
2008,08,26,06,49,7.80
2008,08,26,06,50,7.80
2008,08,26,06,51,7.70
2008,08,26,06,52,7.70
2008,08,26,06,53,7.80
2008,08,26,06,54,7.80
2008,08,26,06,55,7.80
2008,08,26,06,56,7.80
2008,08,26,06,57,7.80
2008,08,26,06,58,7.90
2008,08,26,06,59,7.90
2008,08,26,07,00,7.90
2008,08,26,07,01,8.00
2008,08,26,07,02,8.00
2008,08,26,07,03,8.10
2008,08,26,07,04,8.10
2008,08,26,07,05,8.20
2008,08,26,07,06,8.20
2008,08,26,07,07,8.20
2008,08,26,07,08,8.20
2008,08,26,07,09,8.20
2008,08,26,07,10,8.20
2008,08,26,07,11,8.20
2008,08,26,07,12,8.20
2008,08,26,07,13,8.20
2008,08,26,07,14,8.20
2008,08,26,07,15,8.30
2008,08,26,07,16,8.30
2008,08,26,07,17,8.30
2008,08,26,07,18,8.30
2008,08,26,07,19,8.40
2008,08,26,07,20,8.40
2008,08,26,07,21,8.50
2008,08,26,07,22,8.60
2008,08,26,07,23,8.60
2008,08,26,07,24,8.70
2008,08,26,07,25,8.80
2008,08,26,07,26,8.90
2008,08,26,07,27,9.00
2008,08,26,07,28,9.00
2008,08,26,07,29,9.10
2008,08,26,07,30,9.20
2008,08,26,07,31,9.30
2008,08,26,07,32,9.40
2008,08,26,07,33,9.40
2008,08,26,07,34,9.50
2008,08,26,07,35,9.60
2008,08,26,07,36,9.60
2008,08,26,07,37,9.70
2008,08,26,07,38,9.70
2008,08,26,07,39,9.70
2008,08,26,07,40,9.80
2008,08,26,07,41,9.80
2008,08,26,07,42,9.90
2008,08,26,07,43,9.90
2008,08,26,07,44,10.00
2008,08,26,07,45,10.10
2008,08,26,07,46,10.10
2008,08,26,07,47,10.20
2008,08,26,07,48,10.20
2008,08,26,07,49,10.20
2008,08,26,07,50,10.30
2008,08,26,07,51,10.30
2008,08,26,07,52,10.40
2008,08,26,07,53,10.40
2008,08,26,07,54,10.50
2008,08,26,07,55,10.60
2008,08,26,07,56,10.70
2008,08,26,07,57,10.80
2008,08,26,07,58,10.90
2008,08,26,07,59,11.00
2008,08,26,08,00,11.10
2008,08,26,08,01,11.20
2008,08,26,08,02,11.30
2008,08,26,08,03,11.40
2008,08,26,08,04,11.50
2008,08,26,08,05,11.60
2008,08,26,08,06,11.70
2008,08,26,08,07,11.80
2008,08,26,08,08,12.00
2008,08,26,08,09,12.10
2008,08,26,08,10,12.20
2008,08,26,08,11,12.30
2008,08,26,08,12,12.30
2008,08,26,08,13,12.40
2008,08,26,08,14,12.40
2008,08,26,08,15,12.50
2008,08,26,08,16,12.50
2008,08,26,08,17,12.60
2008,08,26,08,18,12.60
2008,08,26,08,19,12.60
2008,08,26,08,20,12.70
2008,08,26,08,21,12.70
2008,08,26,08,22,12.70
2008,08,26,08,23,12.80
2008,08,26,08,24,12.80
2008,08,26,08,25,12.90
2008,08,26,08,26,12.90
2008,08,26,08,27,13.00
2008,08,26,08,28,13.10
2008,08,26,08,29,13.20
2008,08,26,08,30,13.30
2008,08,26,08,31,13.40
2008,08,26,08,32,13.50
2008,08,26,08,33,13.60
2008,08,26,08,34,13.70
2008,08,26,08,35,13.70
2008,08,26,08,36,13.80
2008,08,26,08,37,13.80
2008,08,26,08,38,13.90
2008,08,26,08,39,13.90
2008,08,26,08,40,14.00
2008,08,26,08,41,14.00
2008,08,26,08,42,14.10
2008,08,26,08,43,14.10
2008,08,26,08,44,14.20
2008,08,26,08,45,14.20
2008,08,26,08,46,14.30
2008,08,26,08,47,14.40
2008,08,26,08,48,14.60
2008,08,26,08,49,14.70
2008,08,26,08,50,14.80
2008,08,26,08,51,15.00
2008,08,26,08,52,15.00
2008,08,26,08,53,15.00
2008,08,26,08,54,15.10
2008,08,26,08,55,15.10
2008,08,26,08,56,15.20
2008,08,26,08,57,15.20
2008,08,26,08,58,15.20
2008,08,26,08,59,15.20
2008,08,26,09,00,15.10
2008,08,26,09,01,15.00
2008,08,26,09,02,15.00
2008,08,26,09,03,15.00
2008,08,26,09,04,15.00
2008,08,26,09,05,15.00
2008,08,26,09,06,15.00
2008,08,26,09,07,15.20
2008,08,26,09,08,15.30
2008,08,26,09,09,15.40
2008,08,26,09,10,15.60
2008,08,26,09,11,15.70
2008,08,26,09,12,15.80
2008,08,26,09,13,15.90
2008,08,26,09,14,16.00
2008,08,26,09,15,16.10
2008,08,26,09,16,16.10
2008,08,26,09,17,16.10
2008,08,26,09,18,16.00
2008,08,26,09,19,16.00
2008,08,26,09,20,16.00
2008,08,26,09,21,15.90
2008,08,26,09,22,15.90
2008,08,26,09,23,15.90
2008,08,26,09,24,16.00
2008,08,26,09,25,16.10
2008,08,26,09,26,16.10
2008,08,26,09,27,16.20
2008,08,26,09,28,16.30
2008,08,26,09,29,16.30
2008,08,26,09,30,16.30
2008,08,26,09,31,16.30
2008,08,26,09,32,16.30
2008,08,26,09,33,16.20
2008,08,26,09,34,16.00
2008,08,26,09,35,16.00
2008,08,26,09,36,16.00
2008,08,26,09,37,16.00
2008,08,26,09,38,16.10
2008,08,26,09,39,16.20
2008,08,26,09,40,16.30
2008,08,26,09,41,16.30
2008,08,26,09,42,16.30
2008,08,26,09,43,16.40
2008,08,26,09,44,16.40
2008,08,26,09,45,16.50
2008,08,26,09,46,16.60
2008,08,26,09,47,16.70
2008,08,26,09,48,16.70
2008,08,26,09,49,16.80
2008,08,26,09,50,16.90
2008,08,26,09,51,16.90
2008,08,26,09,52,17.00
2008,08,26,09,53,17.10
2008,08,26,09,54,17.10
2008,08,26,09,55,17.20
2008,08,26,09,56,17.20
2008,08,26,09,57,17.20
2008,08,26,09,58,17.00
2008,08,26,09,59,16.90
2008,08,26,10,00,16.80
2008,08,26,10,01,16.70
2008,08,26,10,02,16.70
2008,08,26,10,03,16.60
2008,08,26,10,04,16.60
2008,08,26,10,05,16.40
2008,08,26,10,06,16.30
2008,08,26,10,07,16.20
2008,08,26,10,08,16.20
2008,08,26,10,09,16.30
2008,08,26,10,10,16.30
2008,08,26,10,11,16.30
2008,08,26,10,12,16.30
2008,08,26,10,13,16.30
2008,08,26,10,14,16.40
2008,08,26,10,15,16.40
2008,08,26,10,16,16.50
2008,08,26,10,17,16.60
2008,08,26,10,18,16.70
2008,08,26,10,19,16.80
2008,08,26,10,20,16.80
2008,08,26,10,21,16.70
2008,08,26,10,22,16.70
2008,08,26,10,23,16.70
2008,08,26,10,24,16.70
2008,08,26,10,25,16.60
2008,08,26,10,26,16.60
2008,08,26,10,27,16.60
2008,08,26,10,28,16.60
2008,08,26,10,29,16.70
2008,08,26,10,30,16.80
2008,08,26,10,31,16.80
2008,08,26,10,32,16.80
2008,08,26,10,33,16.80
2008,08,26,10,34,16.80
2008,08,26,10,35,16.80
2008,08,26,10,36,16.80
2008,08,26,10,37,16.80
2008,08,26,10,38,16.80
2008,08,26,10,39,16.80
2008,08,26,10,40,16.80
2008,08,26,10,41,16.80
2008,08,26,10,42,16.80
2008,08,26,10,43,16.70
2008,08,26,10,44,16.70
2008,08,26,10,45,16.60
2008,08,26,10,46,16.60
2008,08,26,10,47,16.50
2008,08,26,10,48,16.50
2008,08,26,10,49,16.60
2008,08,26,10,50,16.50
2008,08,26,10,51,16.50
2008,08,26,10,52,16.40
2008,08,26,10,53,16.50
2008,08,26,10,54,16.50
2008,08,26,10,55,16.60
2008,08,26,10,56,16.70
2008,08,26,10,57,16.70
2008,08,26,10,58,16.70
2008,08,26,10,59,16.60
2008,08,26,11,00,16.60
2008,08,26,11,01,16.60
2008,08,26,11,02,16.70
2008,08,26,11,03,16.80
2008,08,26,11,04,16.90
2008,08,26,11,05,16.90
2008,08,26,11,06,16.90
2008,08,26,11,07,16.90
2008,08,26,11,08,16.80
2008,08,26,11,09,16.80
2008,08,26,11,10,16.80
2008,08,26,11,11,16.90
2008,08,26,11,12,17.00
2008,08,26,11,13,17.10
2008,08,26,11,14,17.20
2008,08,26,11,15,17.20
2008,08,26,11,16,17.20
2008,08,26,11,17,17.10
2008,08,26,11,18,17.00
2008,08,26,11,19,16.90
2008,08,26,11,20,16.90
2008,08,26,11,21,16.90
2008,08,26,11,22,16.90
2008,08,26,11,23,17.00
2008,08,26,11,24,17.10
2008,08,26,11,25,17.10
2008,08,26,11,26,17.10
2008,08,26,11,27,17.20
2008,08,26,11,28,17.30
2008,08,26,11,29,17.40
2008,08,26,11,30,17.50
2008,08,26,11,31,17.60
2008,08,26,11,32,17.60
2008,08,26,11,33,17.60
2008,08,26,11,34,17.70
2008,08,26,11,35,17.80
2008,08,26,11,36,17.90
2008,08,26,11,37,17.90
2008,08,26,11,38,17.90
2008,08,26,11,39,18.00
2008,08,26,11,40,17.90
2008,08,26,11,41,17.90
2008,08,26,11,42,17.90
2008,08,26,11,43,17.90
2008,08,26,11,44,17.80
2008,08,26,11,45,17.80
2008,08,26,11,46,17.90
2008,08,26,11,47,18.00
2008,08,26,11,48,18.10
2008,08,26,11,49,18.40
2008,08,26,11,50,18.50
2008,08,26,11,51,18.70
2008,08,26,11,52,18.70
2008,08,26,11,53,18.60
2008,08,26,11,54,18.50
2008,08,26,11,55,18.40
2008,08,26,11,56,18.40
2008,08,26,11,57,18.30
2008,08,26,11,58,18.20
2008,08,26,11,59,18.30
2008,08,26,12,00,18.20
2008,08,26,12,01,18.20
2008,08,26,12,02,18.10
2008,08,26,12,03,18.00
2008,08,26,12,04,18.00
2008,08,26,12,05,17.90
2008,08,26,12,06,17.90
2008,08,26,12,07,18.00
2008,08,26,12,08,17.90
2008,08,26,12,09,17.90
2008,08,26,12,10,17.90
2008,08,26,12,11,17.90
2008,08,26,12,12,18.00
2008,08,26,12,13,18.00
2008,08,26,12,14,17.90
2008,08,26,12,15,17.80
2008,08,26,12,16,17.80
2008,08,26,12,17,17.80
2008,08,26,12,18,17.80
2008,08,26,12,19,17.70
2008,08,26,12,20,17.70
2008,08,26,12,21,17.70
2008,08,26,12,22,17.70
2008,08,26,12,23,17.60
2008,08,26,12,24,17.60
2008,08,26,12,25,17.60
2008,08,26,12,26,17.60
2008,08,26,12,27,17.60
2008,08,26,12,28,17.40
2008,08,26,12,29,17.30
2008,08,26,12,30,17.20
2008,08,26,12,31,17.20
2008,08,26,12,32,17.20
2008,08,26,12,33,17.10
2008,08,26,12,34,17.10
2008,08,26,12,35,17.20
2008,08,26,12,36,17.30
2008,08,26,12,37,17.40
2008,08,26,12,38,17.40
2008,08,26,12,39,17.30
2008,08,26,12,40,17.20
2008,08,26,12,41,17.20
2008,08,26,12,42,17.10
2008,08,26,12,43,16.90
2008,08,26,12,44,16.90
2008,08,26,12,45,16.90
2008,08,26,12,46,16.90
2008,08,26,12,47,17.00
2008,08,26,12,48,17.10
2008,08,26,12,49,17.10
2008,08,26,12,50,17.00
2008,08,26,12,51,16.80
2008,08,26,12,52,16.70
2008,08,26,12,53,16.70
2008,08,26,12,54,16.70
2008,08,26,12,55,16.80
2008,08,26,12,56,16.80
2008,08,26,12,57,16.80
2008,08,26,12,58,16.80
2008,08,26,12,59,16.70
2008,08,26,13,00,16.60
2008,08,26,13,01,16.50
2008,08,26,13,02,16.40
2008,08,26,13,03,16.40
2008,08,26,13,04,16.40
2008,08,26,13,05,16.40
2008,08,26,13,06,16.40
2008,08,26,13,07,16.40
2008,08,26,13,08,16.50
2008,08,26,13,09,16.50
2008,08,26,13,10,16.50
2008,08,26,13,11,16.60
2008,08,26,13,12,16.60
2008,08,26,13,13,16.50
2008,08,26,13,14,16.40
2008,08,26,13,15,16.40
2008,08,26,13,16,16.30
2008,08,26,13,17,16.10
2008,08,26,13,18,16.00
2008,08,26,13,19,15.90
2008,08,26,13,20,15.90
2008,08,26,13,21,15.80
2008,08,26,13,22,15.80
2008,08,26,13,23,15.80
2008,08,26,13,24,15.90
2008,08,26,13,25,15.90
2008,08,26,13,26,15.90
2008,08,26,13,27,15.90
2008,08,26,13,28,15.80
2008,08,26,13,29,15.80
2008,08,26,13,30,15.80
2008,08,26,13,31,15.80
2008,08,26,13,32,15.80
2008,08,26,13,33,15.80
2008,08,26,13,34,15.80
2008,08,26,13,35,15.80
2008,08,26,13,36,15.80
2008,08,26,13,37,15.80
2008,08,26,13,38,15.80
2008,08,26,13,39,15.80
2008,08,26,13,40,15.90
2008,08,26,13,41,15.90
2008,08,26,13,42,15.80
2008,08,26,13,43,15.80
2008,08,26,13,44,15.90
2008,08,26,13,45,15.90
2008,08,26,13,46,16.00
2008,08,26,13,47,16.10
2008,08,26,13,48,16.20
2008,08,26,13,49,16.20
2008,08,26,13,50,16.30
2008,08,26,13,51,16.20
2008,08,26,13,52,16.30
2008,08,26,13,53,16.30
2008,08,26,13,54,16.30
2008,08,26,13,55,16.40
2008,08,26,13,56,16.50
2008,08,26,13,57,16.60
2008,08,26,13,58,16.70
2008,08,26,13,59,16.80
2008,08,26,14,00,16.90
2008,08,26,14,01,16.90
2008,08,26,14,02,16.80
2008,08,26,14,03,16.80
2008,08,26,14,04,16.80
2008,08,26,14,05,16.80
2008,08,26,14,06,16.90
2008,08,26,14,07,16.90
2008,08,26,14,08,17.00
2008,08,26,14,09,17.00
2008,08,26,14,10,16.90
2008,08,26,14,11,16.90
2008,08,26,14,12,16.80
2008,08,26,14,13,16.80
2008,08,26,14,14,16.90
2008,08,26,14,15,16.90
2008,08,26,14,16,16.90
2008,08,26,14,17,16.90
2008,08,26,14,18,16.90
2008,08,26,14,19,16.90
2008,08,26,14,20,16.90
2008,08,26,14,21,16.90
2008,08,26,14,22,16.90
2008,08,26,14,23,16.90
2008,08,26,14,24,16.90
2008,08,26,14,25,16.90
2008,08,26,14,26,16.80
2008,08,26,14,27,16.70
2008,08,26,14,28,16.70
2008,08,26,14,29,16.70
2008,08,26,14,30,16.80
2008,08,26,14,31,16.80
2008,08,26,14,32,16.90
2008,08,26,14,33,16.90
2008,08,26,14,34,16.90
2008,08,26,14,35,17.00
2008,08,26,14,36,17.10
2008,08,26,14,37,17.10
2008,08,26,14,38,17.10
2008,08,26,14,39,17.20
2008,08,26,14,40,17.10
2008,08,26,14,41,17.00
2008,08,26,14,42,17.00
2008,08,26,14,43,16.90
2008,08,26,14,44,17.00
2008,08,26,14,45,16.90
2008,08,26,14,46,16.90
2008,08,26,14,47,16.90
2008,08,26,14,48,16.90
2008,08,26,14,49,16.90
2008,08,26,14,50,16.90
2008,08,26,14,51,16.90
2008,08,26,14,52,17.00
2008,08,26,14,53,17.00
2008,08,26,14,54,17.00
2008,08,26,14,55,16.90
2008,08,26,14,56,17.00
2008,08,26,14,57,17.00
2008,08,26,14,58,17.00
2008,08,26,14,59,17.00
2008,08,26,15,00,16.90
2008,08,26,15,01,16.90
2008,08,26,15,02,16.90
2008,08,26,15,03,17.00
2008,08,26,15,04,17.00
2008,08,26,15,05,17.10
2008,08,26,15,06,17.10
2008,08,26,15,07,17.20
2008,08,26,15,08,17.20
2008,08,26,15,09,17.20
2008,08,26,15,10,17.20
2008,08,26,15,11,17.20
2008,08,26,15,12,17.30
2008,08,26,15,13,17.20
2008,08,26,15,14,17.20
2008,08,26,15,15,17.30
2008,08,26,15,16,17.30
2008,08,26,15,17,17.30
2008,08,26,15,18,17.20
2008,08,26,15,19,17.20
2008,08,26,15,20,17.10
2008,08,26,15,21,17.00
2008,08,26,15,22,16.90
2008,08,26,15,23,16.90
2008,08,26,15,24,16.80
2008,08,26,15,25,16.80
2008,08,26,15,26,16.90
2008,08,26,15,27,16.90
2008,08,26,15,28,16.90
2008,08,26,15,29,16.90
2008,08,26,15,30,16.80
2008,08,26,15,31,16.80
2008,08,26,15,32,16.70
2008,08,26,15,33,16.70
2008,08,26,15,34,16.60
2008,08,26,15,35,16.60
2008,08,26,15,36,16.60
2008,08,26,15,37,16.50
2008,08,26,15,38,16.50
2008,08,26,15,39,16.50
2008,08,26,15,40,16.50
2008,08,26,15,41,16.40
2008,08,26,15,42,16.40
2008,08,26,15,43,16.40
2008,08,26,15,44,16.30
2008,08,26,15,45,16.20
2008,08,26,15,46,16.20
2008,08,26,15,47,16.20
2008,08,26,15,48,16.20
2008,08,26,15,49,16.20
2008,08,26,15,50,16.20
2008,08,26,15,51,16.20
2008,08,26,15,52,16.20
2008,08,26,15,53,16.20
2008,08,26,15,54,16.20
2008,08,26,15,55,16.10
2008,08,26,15,56,16.10
2008,08,26,15,57,16.10
2008,08,26,15,58,16.00
2008,08,26,15,59,16.00
2008,08,26,16,00,16.00
2008,08,26,16,01,16.00
2008,08,26,16,02,16.00
2008,08,26,16,03,16.00
2008,08,26,16,04,15.90
2008,08,26,16,05,15.90
2008,08,26,16,06,15.80
2008,08,26,16,07,15.80
2008,08,26,16,08,15.80
2008,08,26,16,09,15.70
2008,08,26,16,10,15.70
2008,08,26,16,11,15.70
2008,08,26,16,12,15.70
2008,08,26,16,13,15.60
2008,08,26,16,14,15.60
2008,08,26,16,15,15.60
2008,08,26,16,16,15.60
2008,08,26,16,17,15.60
2008,08,26,16,18,15.60
2008,08,26,16,19,15.60
2008,08,26,16,20,15.70
2008,08,26,16,21,15.70
2008,08,26,16,22,15.70
2008,08,26,16,23,15.70
2008,08,26,16,24,15.70
2008,08,26,16,25,15.70
2008,08,26,16,26,15.70
2008,08,26,16,27,15.70
2008,08,26,16,28,15.70
2008,08,26,16,29,15.70
2008,08,26,16,30,15.70
2008,08,26,16,31,15.70
2008,08,26,16,32,15.70
2008,08,26,16,33,15.70
2008,08,26,16,34,15.70
2008,08,26,16,35,15.70
2008,08,26,16,36,15.70
2008,08,26,16,37,15.70
2008,08,26,16,38,15.70
2008,08,26,16,39,15.70
2008,08,26,16,40,15.70
2008,08,26,16,41,15.70
2008,08,26,16,42,15.70
2008,08,26,16,43,15.70
2008,08,26,16,44,15.70
2008,08,26,16,45,15.70
2008,08,26,16,46,15.70
2008,08,26,16,47,15.70
2008,08,26,16,48,15.70
2008,08,26,16,49,15.70
2008,08,26,16,50,15.70
2008,08,26,16,51,15.70
2008,08,26,16,52,15.70
2008,08,26,16,53,15.70
2008,08,26,16,54,15.70
2008,08,26,16,55,15.70
2008,08,26,16,56,15.70
2008,08,26,16,57,15.70
2008,08,26,16,58,15.70
2008,08,26,16,59,15.70
2008,08,26,17,00,15.70
2008,08,26,17,01,15.70
2008,08,26,17,02,15.70
2008,08,26,17,03,15.70
2008,08,26,17,04,15.70
2008,08,26,17,05,15.70
2008,08,26,17,06,15.70
2008,08,26,17,07,15.60
2008,08,26,17,08,15.60
2008,08,26,17,09,15.60
2008,08,26,17,10,15.60
2008,08,26,17,11,15.60
2008,08,26,17,12,15.60
2008,08,26,17,13,15.60
2008,08,26,17,14,15.60
2008,08,26,17,15,15.60
2008,08,26,17,16,15.60
2008,08,26,17,17,15.60
2008,08,26,17,18,15.60
2008,08,26,17,19,15.60
2008,08,26,17,20,15.50
2008,08,26,17,21,15.50
2008,08,26,17,22,15.50
2008,08,26,17,23,15.50
2008,08,26,17,24,15.50
2008,08,26,17,25,15.50
2008,08,26,17,26,15.50
2008,08,26,17,27,15.40
2008,08,26,17,28,15.40
2008,08,26,17,29,15.40
2008,08,26,17,30,15.40